NAPEX1 KBOS-KLGA

Flight info

Callsign NAPEX1
Flight time N/A
Altitude VFR/085
Route
Aircraft C25C/M-VGD/C

Departure

Time 2026-05-04 23:29
Airport Boston Logan International Airport (KBOS)

Arrival

Time N/A
Airport LaGuardia Airport (KLGA)
Time Latitude Longitude Altitude Speed Heading
2026-05-04 23:21 42.36834 -71.01478 19 ft 0 kts 248°
2026-05-04 23:22 42.36833 -71.01482 19 ft 0 kts 248°
2026-05-04 23:23 42.36838 -71.01466 22 ft 2 kts 248°
2026-05-04 23:23 42.36839 -71.01448 19 ft 2 kts 313°
2026-05-04 23:23 42.36830 -71.01444 20 ft 0 kts 29°
2026-05-04 23:24 42.36853 -71.01427 19 ft 6 kts 18°
2026-05-04 23:25 42.36884 -71.01399 20 ft 7 kts 82°
2026-05-04 23:25 42.36903 -71.01311 19 ft 14 kts 64°
2026-05-04 23:25 42.36934 -71.01164 18 ft 16 kts 85°
2026-05-04 23:25 42.37026 -71.01083 17 ft 20 kts 25°
2026-05-04 23:26 42.37178 -71.00984 16 ft 27 kts 26°
2026-05-04 23:26 42.37373 -71.00870 15 ft 34 kts 20°
2026-05-04 23:26 42.37582 -71.00767 18 ft 17 kts 20°
2026-05-04 23:26 42.37620 -71.00674 19 ft 1 kts 107°
2026-05-04 23:27 42.37619 -71.00668 19 ft 4 kts 108°
2026-05-04 23:27 42.37627 -71.00566 22 ft 20 kts 40°
2026-05-04 23:27 42.37765 -71.00585 23 ft 23 kts 295°
2026-05-04 23:27 42.37837 -71.00576 21 ft 11 kts 100°
2026-05-04 23:28 42.37836 -71.00571 21 ft 0 kts 104°
2026-05-04 23:29 42.37834 -71.00565 21 ft 5 kts 105°
2026-05-04 23:29 42.37770 -71.00485 19 ft 20 kts 184°
2026-05-04 23:29 42.35600 -71.01540 927 ft 226 kts 200°
2026-05-04 23:30 42.34128 -71.02368 2440 ft 223 kts 205°
2026-05-04 23:30 42.32521 -71.02560 3397 ft 266 kts 176°